Home   Weather   Thessaloniki   Past weeks
Flag for Greece

Past Weather in Thessaloniki, Greece — Yesterday and Last 2 Weeks

Now
37 °F

Passing clouds.


Feels Like: 37 °F
Forecast: 51 / 41 °F
Wind: 2 mph from North

Location: Thessaloniki Airport

Current Time: Jan 19, 2019 at 2:17:21 am

Latest Report: Jan 19, 2019 at 1:20 am


Visibility: N/A

Pressure: 30.07 "Hg

Humidity: 81%

Dew Point: 32 °F

Location of ThessalonikiLocation

Past Weather in Thessaloniki — Graph

°F

Thessaloniki Temperature Yesterday

Maximum temperature yesterday: 46 °F (at 3:20 pm)
Minimum temperature yesterday: 27 °F (at 7:50 am)
Average temperature yesterday: 36 °F

High & Low Weather Summary for the Past Weeks

 TemperatureHumidityPressure
High50 °F (Jan 17, 3:20 pm)100% (Jan 5, 12:20 am)30.27 "Hg (Jan 5, 12:20 am)
Low21 °F (Jan 6, 2:50 am)34% (Jan 16, 1:20 pm)29.56 "Hg (Jan 14, 4:50 pm)
Average35 °F68%29.95 "Hg
* Reported Jan 4 12:20 am — Jan 19 12:50 am, Thessaloniki. Weather by CustomWeather, © 2019

Note: Actual official high and low records may vary slightly from our data, if they occured in-between our weather recording intervals... More about our weather records

Advertising

Thessaloniki Weather History for the Previous 24 Hours

Scroll right to see more
 ConditionsComfort  
Time TempWeatherWind HumidityBarometerVisibility
12:50 am
Sat, Jan 19
36 °FPassing clouds.3 mph87%30.07 "HgN/A
12:20 am37 °FPassing clouds.3 mph81%30.07 "HgN/A
11:50 pm
Fri, Jan 18
36 °FPassing clouds.5 mph87%30.07 "HgN/A
11:20 pm36 °FPassing clouds.2 mph87%30.07 "HgN/A
10:20 pm36 °FPassing clouds.2 mph81%30.07 "HgN/A
9:50 pm37 °FPassing clouds.6 mph81%30.07 "HgN/A
9:20 pm37 °FPassing clouds.6 mph75%30.07 "Hg5 mi
8:50 pm37 °FPassing clouds.3 mph81%30.04 "Hg5 mi
8:20 pm37 °FPassing clouds.3 mph75%30.07 "Hg5 mi
7:50 pm39 °FPassing clouds.3 mph75%30.07 "Hg5 mi
7:20 pm41 °FPassing clouds.3 mph70%30.07 "Hg5 mi
6:50 pm41 °FPassing clouds.2 mph66%30.07 "Hg5 mi
6:20 pm43 °FPassing clouds.2 mph66%30.04 "Hg5 mi
5:50 pm43 °FPassing clouds.2 mph66%30.04 "Hg5 mi
5:20 pm45 °FScattered clouds.3 mph61%30.04 "Hg5 mi
4:50 pm46 °FScattered clouds.3 mph62%30.04 "Hg5 mi
3:50 pm46 °FPassing clouds.2 mph62%30.04 "Hg5 mi
3:20 pm46 °FPassing clouds.3 mph62%30.04 "Hg5 mi
2:50 pm45 °FPassing clouds.6 mph66%30.04 "Hg5 mi
1:50 pm45 °FPassing clouds.3 mph71%30.04 "Hg5 mi
1:20 pm43 °FPassing clouds.3 mph76%30.07 "Hg5 mi
12:50 pm43 °FPassing clouds.3 mph76%30.07 "Hg5 mi
12:20 pm41 °FPassing clouds.3 mph81%30.07 "Hg5 mi
11:50 am41 °FPassing clouds.3 mph81%30.09 "Hg5 mi
11:20 am41 °FPassing clouds.2 mph81%30.09 "Hg5 mi
10:50 am39 °FPassing clouds.No wind87%30.09 "Hg5 mi
10:20 am37 °FPassing clouds.2 mph87%30.09 "Hg5 mi
9:50 am36 °FPassing clouds.2 mph87%30.09 "Hg5 mi
9:20 am32 °FPassing clouds.2 mph93%30.09 "Hg5 mi
8:50 am32 °FPassing clouds.3 mph87%30.07 "Hg5 mi
8:20 am30 °FPassing clouds.3 mph93%30.07 "Hg5 mi
7:50 am27 °FPassing clouds.3 mph93%30.07 "Hg4 mi
7:20 am28 °FClear.3 mph93%30.07 "Hg10 mi
6:50 am28 °FClear.5 mph93%30.07 "Hg10 mi
6:20 am28 °FClear.2 mph93%30.07 "Hg10 mi
5:50 am28 °FClear.2 mph93%30.07 "Hg10 mi
5:20 am30 °FClear.3 mph86%30.07 "Hg10 mi
4:50 am30 °FClear.3 mph86%30.07 "Hg10 mi
4:20 am30 °FClear.2 mph93%30.07 "Hg10 mi
3:50 am30 °FClear.3 mph100%30.07 "Hg10 mi
3:20 am32 °FPassing clouds.2 mph87%30.09 "HgN/A
2:50 am32 °FPassing clouds.3 mph87%30.09 "HgN/A
2:20 am32 °FPassing clouds.2 mph80%30.09 "HgN/A
Weather by CustomWeather, © 2019

See weather overview